Location: Frankfurt am Main
(50.1109°N, 8.6821°E)
Time: 13:01:06
(UTC+01:00)

ISS - Pass Details

Date: 28 October 2021
Orbit: 417 x 422 km, 51.6° (Epoch: 07 December)

Event Time Altitude Azimuth Distance (km) Brightness Sun altitude
Exits shadow 07:10:51 14° 266° (W) 1,281 -1.9 -9.8°
Maximum altitude 07:13:40 72° 351° (N) 444 -3.7 -9.4°
Drops below altitude 10° 07:17:02 10° 76° (ENE) 1,500 0.3 -8.8°
Sets 07:19:08 0° 79° (E) 2,363 1.5 -8.5°
